TimeCDT,TemperatureF,Dew PointF,Humidity,Sea Level PressureIn,VisibilityMPH,Wind Direction,Wind SpeedMPH,Gust SpeedMPH,PrecipitationIn,Events,Conditions,WindDirDegrees,DateUTC
12:53 AM,46.9,32.0,56,29.84,10.0,ESE,3.5,-,N/A,,Clear,110,2012-10-03 05:53:00
1:53 AM,45.0,32.0,60,29.84,10.0,ESE,4.6,-,N/A,,Clear,110,2012-10-03 06:53:00
2:53 AM,45.0,32.0,60,29.83,10.0,ESE,4.6,-,N/A,,Clear,120,2012-10-03 07:53:00
3:53 AM,44.1,32.0,63,29.81,10.0,ESE,8.1,-,N/A,,Clear,110,2012-10-03 08:53:00
4:53 AM,41.0,32.0,70,29.81,10.0,Calm,Calm,-,N/A,,Clear,0,2012-10-03 09:53:00
5:53 AM,43.0,33.1,68,29.80,10.0,ESE,6.9,-,N/A,,Clear,110,2012-10-03 10:53:00
6:53 AM,42.1,33.1,70,29.81,10.0,East,6.9,-,N/A,,Clear,100,2012-10-03 11:53:00
7:53 AM,41.0,33.1,73,29.79,10.0,East,5.8,-,N/A,,Clear,90,2012-10-03 12:53:00
8:53 AM,54.0,36.0,51,29.78,10.0,SSE,10.4,-,N/A,,Clear,150,2012-10-03 13:53:00
9:53 AM,61.0,37.9,42,29.76,10.0,South,10.4,-,N/A,,Clear,180,2012-10-03 14:53:00
10:53 AM,68.0,41.0,37,29.74,10.0,South,15.0,20.7,N/A,,Clear,170,2012-10-03 15:53:00
11:53 AM,73.9,44.1,34,29.71,10.0,South,17.3,24.2,N/A,,Clear,170,2012-10-03 16:53:00
12:53 PM,79.0,44.1,29,29.69,10.0,South,21.9,32.2,N/A,,Clear,180,2012-10-03 17:53:00
1:53 PM,82.0,43.0,25,29.67,10.0,South,18.4,31.1,N/A,,Clear,190,2012-10-03 18:53:00
2:53 PM,86.0,41.0,20,29.65,10.0,South,19.6,31.1,N/A,,Clear,190,2012-10-03 19:53:00
3:53 PM,86.0,42.1,21,29.64,10.0,South,21.9,29.9,N/A,,Clear,190,2012-10-03 20:53:00
4:53 PM,88.0,30.9,13,29.66,10.0,West,13.8,24.2,N/A,,Clear,280,2012-10-03 21:53:00
5:00 PM,86.0,30.2,13,29.68,10.0,West,15.0,-,N/A,,Clear,270,2012-10-03 22:00:00
5:53 PM,78.1,37.0,23,29.73,10.0,NNW,25.3,34.5,N/A,,Clear,330,2012-10-03 22:53:00
6:53 PM,72.0,34.0,25,29.80,10.0,NNW,17.3,31.1,N/A,,Clear,330,2012-10-03 23:53:00
7:53 PM,63.0,41.0,45,29.88,10.0,NNW,33.4,44.9,N/A,,Clear,330,2012-10-04 00:53:00
8:53 PM,57.0,39.0,51,29.98,10.0,NNW,25.3,34.5,N/A,,Clear,340,2012-10-04 01:53:00
9:53 PM,54.0,37.9,55,30.01,10.0,NNW,21.9,35.7,N/A,,Clear,330,2012-10-04 02:53:00
10:53 PM,51.1,37.9,61,30.06,10.0,NNW,26.5,33.4,N/A,,Scattered Clouds,330,2012-10-04 03:53:00
11:53 PM,46.9,37.0,68,30.11,10.0,NNW,28.8,35.7,N/A,,Mostly Cloudy,330,2012-10-04 04:53:00